Theta_e
308 308 308 308 308 309 309 309 308 308 307 312 306 314 306 300 297 310 315 317 315 303 296 296 297 299 300 310 312 312 309 307 309 307 308 306 307 306 305 305 303 303 301 300 298 297 295 296 295 297 298 298 301 302 299 299 301 299 297 299 298 319 288 286 290 292 296 299 299 301 302 297 295 296 297 294 293 290 286 283 285 284 288 285 282 280 284
308 308 308 308 308 308 309 309 308 308 307 305 307 310 306 307 306 308 316 321 312 304 292 289 288 299 308 312 309 313 309 309 307 306 307 308 306 303 304 305 303 300 301 299 297 297 288 296 295 295 298 296 302 302 305 305 304 298 299 294 300 290 289 291 282 280 284 287 292 294 298 297 292 293 294 297 296 297 294 293 288 284 289 288 283 279 281
308 308 308 308 307 308 308 308 308 308 308 307 307 307 311 309 310 309 311 316 312 303 298 295 292 301 306 309 307 309 310 309 309 308 307 309 305 304 301 303 302 301 301 299 298 298 295 292 298 296 297 299 301 304 305 306 303 311 309 318 303 292 290 286 282 282 280 280 279 284 288 292 294 297 296 297 296 295 291 287 285 282 288 289 282 281 287
308 308 308 308 307 307 308 308 308 308 308 307 310 313 307 304 292 297 301 309 310 307 306 303 301 300 305 297 303 310 305 309 311 311 308 310 307 301 303 301 301 300 299 298 297 297 298 294 294 293 295 297 300 302 306 306 306 317 330 315 303 296 296 289 285 281 281 282 286 292 294 292 289 294 296 296 296 295 293 287 283 285 286 287 288 289 292
308 307 308 307 307 307 307 308 307 307 307 308 310 311 308 307 298 291 294 302 302 305 304 302 301 294 302 294 304 304 307 307 308 312 304 305 305 305 302 302 299 299 298 297 297 298 296 298 296 297 296 298 298 303 305 306 312 325 314 314 300 292 290 296 292 291 292 293 295 298 297 293 296 294 294 296 295 294 289 283 287 290 288 285 290 294 294
307 307 307 307 307 307 308 308 307 307 307 305 309 307 305 292 297 306 306 300 288 294 293 302 301 305 305 299 308 305 305 306 302 308 309 304 304 299 299 303 304 301 301 297 290 295 298 295 295 301 299 297 300 299 300 303 316 311 303 306 298 292 289 296 296 295 297 298 298 300 298 296 294 295 294 294 295 294 291 291 292 291 285 284 291 294 294
307 307 307 307 307 307 307 307 307 307 306 308 311 300 304 300 302 305 311 302 301 304 305 307 306 307 307 302 307 303 305 303 306 306 305 306 300 301 290 298 302 304 303 299 297 299 291 289 297 299 300 299 297 296 299 302 302 302 301 303 300 293 291 296 298 296 298 298 298 298 295 296 297 295 295 295 295 294 293 294 294 292 290 290 293 296 296
307 307 307 307 308 307 308 308 307 306 306 308 312 307 302 307 302 303 313 309 307 306 305 307 306 303 309 299 302 306 304 302 305 308 307 297 299 303 300 298 302 303 303 301 297 301 298 299 296 301 301 299 299 296 297 296 300 301 301 303 301 295 287 298 297 291 291 296 298 298 296 296 294 294 295 295 295 295 295 296 296 296 295 296 297 295 296
306 307 307 307 308 308 308 308 307 306 306 312 308 312 312 311 315 316 311 307 305 306 304 304 301 296 299 299 302 306 306 305 308 306 309 304 304 306 301 300 303 305 302 301 303 303 304 303 303 303 299 294 300 298 299 299 297 302 301 302 302 296 288 295 293 288 288 294 296 296 296 295 295 292 293 293 294 293 294 292 295 294 293 293 294 294 294
306 306 307 307 307 307 308 308 307 306 306 313 312 314 318 314 315 319 314 301 306 303 303 302 300 291 300 306 307 306 305 307 307 298 304 308 307 306 304 304 300 299 299 301 304 306 307 305 304 308 307 304 302 302 303 300 297 297 299 301 296 293 290 290 285 286 281 291 296 296 292 289 288 288 293 294 295 296 297 297 299 297 296 292 289 293 297
306 306 306 307 307 307 307 308 307 306 305 302 308 310 313 313 310 310 309 301 295 304 303 302 301 305 308 310 308 309 308 307 309 300 295 307 308 305 308 304 298 296 299 304 308 306 308 305 304 308 305 305 302 300 301 302 301 302 300 298 296 297 293 287 289 289 283 291 296 291 285 281 283 291 298 298 298 297 295 295 295 297 297 294 295 298 299
305 306 306 306 307 307 307 307 307 307 305 303 305 307 311 315 313 311 303 296 296 303 305 304 305 306 307 309 310 309 308 308 309 311 306 307 308 308 305 304 300 293 305 308 304 303 305 304 302 302 303 302 302 301 301 302 301 303 301 298 295 295 292 288 290 286 287 290 288 283 280 280 290 297 301 303 301 300 298 297 298 298 299 300 299 300 300
305 305 305 306 307 307 307 307 307 306 306 304 305 308 312 316 313 313 310 304 292 303 304 306 310 310 311 310 310 309 310 310 312 311 310 308 307 307 308 306 302 306 310 304 303 302 299 298 298 297 298 298 299 299 301 301 301 302 301 301 297 290 289 287 286 285 285 284 282 279 279 287 296 299 300 303 302 298 297 296 298 298 300 302 301 301 302
305 305 305 306 307 307 307 307 307 307 306 305 302 305 309 312 312 309 306 292 294 303 310 304 305 308 308 308 310 308 310 307 307 309 306 311 309 307 307 308 309 308 304 303 301 298 293 287 285 289 293 290 289 291 297 299 299 300 302 303 301 296 292 289 288 288 286 282 281 285 289 295 295 296 300 296 296 295 292 286 290 297 299 302 302 302 300
305 305 305 306 306 306 307 307 307 307 306 305 303 305 309 313 314 311 309 308 295 296 304 295 303 308 308 308 310 304 302 304 304 302 310 313 311 310 306 305 305 305 303 301 297 295 290 287 285 283 285 285 284 286 297 296 298 301 300 299 300 298 294 292 289 286 283 284 282 280 282 281 284 294 300 304 301 298 295 293 290 297 300 301 303 300 299
305 305 305 306 306 306 306 307 307 306 306 305 303 303 306 312 316 314 310 304 291 291 294 309 313 310 307 307 310 308 301 298 300 302 302 304 310 310 310 311 306 304 303 301 298 289 286 290 285 284 283 284 290 290 288 296 295 300 300 302 301 299 298 294 287 288 284 282 280 278 278 280 285 295 301 304 305 301 296 290 285 291 299 301 302 300 300
304 304 305 305 305 306 306 307 306 306 306 305 301 301 307 315 315 312 309 308 304 293 303 314 314 312 307 304 305 302 306 298 306 295 292 299 306 308 311 315 306 304 302 297 295 290 291 286 288 286 287 293 291 286 292 293 291 294 297 299 298 295 290 286 286 286 284 280 282 281 280 284 295 298 300 302 302 298 291 285 281 293 298 302 301 300 300
304 304 304 305 305 306 306 306 306 306 305 306 303 301 305 312 315 314 310 309 301 296 305 312 309 305 304 306 305 310 310 308 305 306 301 304 306 306 311 311 302 301 303 293 292 285 284 284 286 286 285 291 297 295 284 290 288 287 290 290 290 292 289 286 286 283 283 285 281 281 284 291 297 301 303 301 301 293 281 279 286 294 299 301 302 301 303
304 303 304 304 305 305 306 306 306 306 306 305 303 306 308 311 313 314 308 304 303 293 304 313 313 312 311 313 311 314 314 311 309 297 291 297 304 311 313 312 307 295 297 290 291 285 286 286 289 287 286 288 293 287 289 288 285 292 291 290 292 289 288 286 285 286 285 282 285 285 283 290 302 303 303 301 298 286 280 288 295 300 301 302 303 302 303
303 303 303 304 305 305 306 306 306 306 306 306 303 299 303 306 311 312 310 303 304 301 307 308 311 309 312 309 305 303 305 304 308 301 295 297 305 310 297 294 298 299 294 291 289 289 288 286 285 292 287 286 289 297 290 291 292 292 293 292 288 290 288 285 285 285 285 283 282 282 283 293 305 301 299 298 289 287 290 298 305 302 302 303 304 303 304
302 303 303 304 304 305 305 305 306 306 306 306 304 299 300 307 304 308 312 310 304 295 297 307 312 311 313 311 311 312 310 305 306 306 309 307 310 300 292 291 297 304 290 290 288 286 287 286 288 293 290 289 290 293 289 288 290 296 294 294 293 293 290 286 284 287 284 283 283 283 287 294 303 300 291 295 297 297 300 304 302 304 304 302 303 305 305
302 302 303 303 304 304 304 305 305 305 306 306 305 298 296 301 302 308 308 309 303 291 294 305 314 314 317 317 317 316 315 315 315 314 310 300 307 308 303 304 307 304 303 298 294 294 294 293 291 291 289 288 293 288 291 287 284 290 298 294 288 295 292 289 289 292 290 285 285 292 295 301 305 301 299 298 300 306 307 304 303 302 303 304 304 305 304
301 302 302 303 303 304 304 304 305 305 305 305 304 297 294 296 300 304 305 306 308 309 311 313 315 316 318 319 321 322 321 322 320 317 314 309 296 303 309 307 305 311 313 305 302 294 292 293 289 291 290 289 291 288 290 289 285 289 291 296 293 298 300 298 296 297 298 299 299 303 304 303 303 305 306 304 304 308 306 306 304 303 303 304 306 306 305
301 302 302 303 303 303 303 304 304 305 305 306 305 297 296 297 298 304 308 306 302 292 294 297 304 296 304 309 311 313 313 313 318 317 318 315 300 295 304 310 314 313 310 312 313 310 303 298 300 298 292 293 295 286 288 288 286 291 291 292 295 302 303 300 295 298 294 291 298 304 304 303 303 303 306 307 307 308 305 305 304 305 304 305 308 307 306
301 302 302 302 302 303 304 304 304 304 305 305 305 303 301 299 304 305 302 293 292 290 290 289 294 307 313 313 312 310 312 312 312 310 310 314 314 308 308 311 317 310 309 311 310 300 288 301 298 297 292 295 299 289 291 290 289 292 286 289 294 298 302 297 298 295 293 290 296 304 305 304 305 304 305 306 307 306 305 304 303 306 305 308 308 308 307
301 301 302 302 302 303 303 304 304 305 305 305 305 299 297 297 301 303 304 305 304 298 291 286 299 311 312 309 306 308 311 312 311 312 311 314 319 318 315 316 315 320 318 317 314 305 293 292 292 292 293 291 301 293 292 295 295 295 295 294 297 297 301 291 296 295 294 298 299 303 305 304 305 305 304 305 306 305 305 307 307 305 306 306 307 309 308
301 301 301 301 302 303 303 303 304 304 305 305 303 301 300 300 303 308 306 305 299 288 289 290 299 305 308 306 309 311 313 310 309 308 308 310 316 319 317 314 312 312 313 309 306 298 288 291 292 298 297 295 301 301 300 298 299 297 293 296 304 300 295 297 298 294 290 294 295 303 296 293 302 305 306 306 306 306 305 305 305 305 306 307 307 306 308
301 301 301 302 302 303 303 304 304 304 304 305 303 301 303 303 309 308 308 308 303 291 287 288 295 301 308 305 311 310 309 308 307 307 306 307 310 313 315 314 312 312 311 308 299 300 297 298 299 293 299 298 301 295 300 299 298 295 295 296 302 298 298 296 289 287 290 297 298 305 304 301 303 307 307 307 307 305 305 305 306 306 308 308 306 306 305
301 301 302 302 302 303 303 303 304 304 304 304 300 303 305 307 309 307 308 308 308 303 294 292 296 297 294 300 309 307 308 308 308 307 306 306 308 310 311 309 310 309 309 297 288 288 291 290 296 298 300 300 300 293 295 293 291 289 291 296 303 304 302 302 300 297 300 301 303 305 302 303 304 306 307 308 309 306 306 305 307 308 308 307 306 307 307
301 301 302 302 302 303 303 303 304 304 304 300 299 301 298 303 309 304 305 308 305 305 293 291 287 287 301 306 305 306 308 310 307 306 305 304 305 306 308 310 309 312 309 298 295 299 289 292 294 299 305 308 302 296 297 290 290 292 297 299 302 303 303 305 306 304 303 305 304 306 305 304 305 306 309 309 310 309 306 305 305 307 307 307 307 306 306
301 301 301 302 302 303 303 303 304 304 304 295 297 291 293 293 305 306 304 306 305 304 291 291 291 293 297 303 305 305 306 306 304 304 304 304 305 307 310 312 309 311 302 299 302 294 290 295 293 300 304 308 297 294 293 292 290 292 299 302 303 305 305 307 305 306 305 306 307 308 307 307 308 307 309 308 309 309 307 306 309 313 309 308 307 308 307
301 301 302 302 302 303 303 304 304 304 297 294 294 297 297 301 305 304 305 305 305 303 293 292 288 287 289 296 304 308 306 306 306 306 303 309 308 310 310 311 308 310 300 296 290 295 295 290 299 301 303 303 302 297 296 295 291 294 298 302 303 305 308 308 309 310 309 307 306 305 304 304 305 306 303 305 309 310 309 308 308 308 318 310 308 309 309
301 301 301 302 303 303 304 305 305 303 294 298 304 307 306 306 306 306 306 302 303 299 300 292 290 290 289 295 303 303 307 303 299 301 299 304 306 309 305 308 310 308 312 303 295 297 293 296 298 300 303 304 300 292 298 296 297 298 300 303 305 306 306 308 307 306 309 308 305 303 300 301 303 305 304 305 308 310 309 308 308 308 310 308 306 306 306
301 301 301 302 303 305 305 305 306 305 304 299 301 302 306 309 306 307 304 301 299 299 296 291 290 288 290 298 295 298 304 298 295 297 291 298 306 308 296 303 302 299 294 302 293 296 292 301 296 294 304 301 298 295 294 297 299 301 302 303 304 304 305 305 305 306 305 306 307 307 306 307 306 306 307 307 308 308 308 309 309 308 308 308 307 307 307
301 301 302 303 305 305 306 305 299 300 296 299 305 306 306 309 308 305 303 299 295 288 290 290 289 288 286 287 288 295 303 300 296 297 295 294 309 307 304 300 293 296 293 306 291 292 293 296 300 295 294 294 297 293 293 297 301 302 303 304 305 304 305 304 305 304 304 304 305 306 307 305 307 305 306 306 308 309 308 306 308 309 306 306 307 306 306
300 302 303 305 305 305 301 303 298 295 292 291 293 301 305 306 305 302 302 304 302 295 289 289 290 288 290 287 287 291 305 298 299 299 300 302 300 304 299 293 296 296 301 303 291 296 295 300 301 292 292 295 292 295 299 300 302 303 304 305 306 306 306 306 305 305 305 306 308 306 306 305 306 306 306 306 307 308 308 307 305 305 307 306 306 306 305
300 302 303 304 303 298 294 295 299 296 294 298 301 306 307 307 306 306 304 302 305 306 296 291 287 289 294 292 293 296 301 288 297 292 292 295 294 289 291 292 290 287 291 290 291 296 301 305 298 291 290 292 292 297 302 303 303 303 304 305 307 306 306 305 305 305 305 307 307 305 305 304 304 304 305 305 306 307 306 306 306 305 304 305 305 305 306
301 302 295 292 288 283 284 288 294 298 304 304 305 298 297 299 290 291 290 289 295 303 293 295 288 293 294 294 288 299 299 291 295 291 286 288 292 289 292 292 290 294 291 288 292 303 296 298 294 292 291 296 298 302 303 303 305 305 305 306 306 307 307 306 307 306 304 304 304 305 303 303 302 302 303 304 304 305 307 309 308 307 307 307 306 306 306
298 292 291 289 287 284 285 289 299 304 300 300 299 290 287 290 288 288 288 290 289 289 294 294 289 295 296 293 294 300 299 296 292 290 288 292 293 288 289 293 290 291 288 288 291 302 293 285 286 290 291 295 300 302 303 305 305 306 306 307 308 308 308 308 308 307 306 305 306 307 306 305 303 304 304 304 305 306 307 308 308 307 307 307 307 306 306
290 288 285 283 284 286 293 298 301 298 296 288 291 287 286 287 287 285 289 288 288 289 296 288 296 296 295 292 291 291 300 298 289 287 290 291 296 292 288 291 290 291 286 289 288 296 292 289 285 288 288 292 298 301 304 306 306 308 308 308 308 307 307 308 309 310 308 308 308 308 307 306 306 306 305 304 304 304 304 306 307 307 307 307 307 307 306
288 288 287 283 288 291 292 294 295 295 289 285 284 285 284 284 284 286 286 282 283 287 294 292 292 289 292 293 293 290 298 302 300 301 297 291 295 297 289 289 288 290 285 287 287 294 291 289 287 290 286 292 298 300 299 299 299 300 302 305 306 308 308 308 309 309 309 309 308 307 307 307 306 306 306 305 305 305 306 307 307 307 307 306 305 306 308
288 288 290 292 292 293 292 292 289 286 285 287 282 281 282 282 283 285 285 281 284 285 287 289 286 286 286 290 291 293 292 300 299 294 291 289 288 292 286 288 290 286 285 288 291 289 289 288 288 288 291 294 295 297 297 296 296 296 298 301 303 303 303 303 303 306 308 309 309 309 308 308 308 308 308 307 306 306 306 306 307 307 307 308 308 307 308
299 299 297 291 290 287 288 284 285 284 281 279 277 275 279 280 282 282 283 285 288 287 287 293 290 291 291 293 289 293 292 296 292 288 289 290 292 292 290 287 287 286 285 290 292 289 288 286 285 287 292 293 295 295 296 296 295 295 295 297 301 301 301 301 301 300 302 303 304 307 309 309 308 309 309 308 307 305 306 306 307 308 308 308 307 307 308
294 296 291 288 286 283 287 280 286 283 280 281 276 274 277 277 280 279 280 282 285 286 288 285 285 285 282 288 288 285 290 291 291 289 286 289 290 286 287 286 286 290 294 287 286 288 285 285 287 288 291 293 294 294 294 295 295 294 294 295 298 299 299 299 299 298 299 300 301 302 304 306 308 309 309 308 307 307 307 307 307 307 308 308 307 307 308
286 281 282 280 279 282 282 277 284 281 278 280 282 281 280 278 280 279 278 286 286 286 288 287 286 285 283 286 288 285 288 285 286 288 286 287 284 286 286 285 287 288 286 284 284 284 284 285 289 290 292 292 292 293 294 294 294 293 293 294 295 297 297 296 296 297 297 297 298 300 301 303 305 307 307 307 307 308 308 308 308 306 307 307 307 307 307
282 280 280 277 277 279 280 278 280 279 283 283 282 282 282 282 283 284 287 287 286 286 286 287 286 286 283 285 284 282 285 285 284 284 287 285 283 282 285 286 286 285 284 286 285 284 283 286 289 290 292 292 292 292 293 293 293 293 293 292 293 295 296 295 295 296 296 296 296 298 300 301 302 304 306 307 307 307 308 308 308 308 308 307 307 307 307
282 282 281 280 276 278 281 278 278 280 284 284 285 284 285 286 284 284 288 286 286 287 287 287 286 286 283 281 282 282 284 285 283 283 283 281 283 285 287 285 282 283 281 281 282 282 284 288 289 291 291 292 291 291 291 291 292 292 292 293 293 294 295 294 295 295 295 295 296 297 298 299 300 302 304 306 307 307 307 307 308 308 308 307 308 308 307
278 281 280 274 274 278 278 279 282 279 280 284 286 287 288 287 285 285 288 287 288 287 286 285 282 281 281 284 286 281 281 284 281 281 284 283 283 280 280 282 281 283 284 282 282 287 289 290 290 290 290 290 289 289 289 290 290 290 291 292 293 293 293 294 294 294 294 294 295 296 297 298 300 301 303 305 307 308 308 308 308 308 308 308 308 307 307
282 279 277 277 279 280 279 280 279 278 280 282 282 285 285 285 284 286 288 287 286 285 285 282 281 282 279 281 282 281 279 282 279 280 284 282 281 279 281 279 280 278 282 287 288 290 289 289 290 290 290 289 289 289 289 290 290 290 290 291 292 293 293 294 294 294 294 294 294 295 296 297 299 300 302 303 305 307 308 308 308 309 308 307 307 306 306
279 278 280 279 278 278 280 280 280 278 280 280 280 280 282 284 286 287 288 287 287 285 286 286 285 279 279 279 276 278 278 281 282 280 277 279 281 283 283 280 280 279 284 289 289 289 289 289 289 288 288 289 289 290 290 290 290 291 291 291 293 293 293 294 294 294 293 294 294 295 296 297 298 299 300 302 305 308 308 308 308 308 309 308 308 307 306
281 280 279 282 279 277 279 275 275 276 277 277 278 279 281 280 283 284 286 287 285 282 280 279 281 279 278 275 275 272 275 282 279 277 277 276 281 283 282 281 281 284 288 291 291 290 289 289 288 287 288 288 289 290 291 291 291 291 291 291 292 292 293 294 294 293 293 294 294 292 296 297 298 299 301 304 305 306 307 307 307 308 309 309 308 308 307
279 276 278 280 282 281 280 280 279 277 278 279 279 280 281 281 286 287 287 284 282 279 277 279 279 278 274 272 275 278 280 277 277 278 276 278 282 280 280 283 286 287 288 287 287 288 289 289 288 287 288 288 289 289 290 291 292 292 291 291 292 292 293 293 293 293 293 293 294 295 296 297 298 299 300 301 303 304 305 306 306 307 308 309 309 309 309
Wind_Speed
20 20 20 19 19 19 19 20 20 20 21 1 2 1 2 1 4 8 8 5 2 3 1 2 2 2 3 2 1 2 2 4 3 3 2 2 5 3 5 7 3 7 5 0 0 1 1 1 2 0 2 2 0 3 6 8 6 5 1 2 1 6 2 2 3 5 4 3 4 3 4 5 4 3 3 4 1 3 5 3 4 3 0 1 1 0 3
19 20 20 19 19 20 19 19 19 17 14 2 3 2 1 1 2 6 5 2 3 2 3 3 2 3 5 2 5 3 4 2 3 2 1 0 2 3 4 5 7 2 1 1 2 1 2 2 4 2 1 1 3 5 8 7 1 2 3 3 4 2 2 4 2 3 3 6 7 6 5 7 2 0 1 2 3 3 2 5 2 2 1 3 6 3 1
20 20 20 19 21 20 20 20 19 17 13 2 0 2 2 0 3 2 7 5 2 4 5 4 2 2 2 0 4 4 2 4 6 2 4 2 4 1 1 1 1 1 0 0 1 0 4 0 2 5 1 2 1 6 8 6 3 1 4 6 2 4 1 2 1 2 2 1 0 1 1 1 2 0 1 1 3 2 1 0 2 3 1 3 2 2 6
20 20 20 20 21 21 20 20 20 18 14 4 1 1 2 1 0 5 5 4 2 0 1 2 2 1 1 2 4 2 3 4 2 3 5 8 5 3 1 2 3 1 2 3 2 1 1 2 1 2 1 0 1 2 3 4 2 3 7 3 4 2 1 3 5 4 5 5 3 4 1 1 4 1 0 1 3 5 6 5 4 1 1 1 3 5 1
20 20 20 20 21 21 21 21 21 19 13 2 2 1 2 1 1 1 3 7 2 2 2 2 1 4 3 0 1 1 3 3 4 2 1 2 3 1 2 0 3 2 2 0 2 2 2 6 4 1 4 1 1 1 5 2 3 6 3 3 5 3 2 1 5 3 5 6 4 3 3 1 1 3 1 1 4 4 5 2 1 4 6 1 2 3 6
19 20 20 21 22 22 22 22 22 21 16 3 1 2 1 1 3 0 3 3 3 2 5 5 4 4 2 3 0 2 1 1 2 5 3 5 2 2 3 1 1 2 2 2 1 2 2 3 2 1 3 2 2 2 3 1 0 5 1 3 3 3 2 1 2 2 4 4 6 2 1 1 3 3 4 4 4 5 4 1 3 6 4 5 3 4 6
19 20 20 20 21 23 23 23 23 23 17 2 0 2 1 2 1 2 1 1 3 2 6 1 5 3 4 1 0 1 0 5 3 1 5 6 3 2 1 1 2 0 1 3 0 0 2 2 2 1 1 1 2 1 2 2 4 3 2 3 1 4 0 2 2 0 1 4 3 2 2 1 0 3 5 4 8 5 5 2 3 5 2 4 5 7 6
19 20 20 20 21 22 23 23 25 25 18 1 1 1 2 0 1 3 4 0 3 4 4 1 1 0 1 0 3 1 1 5 5 1 0 4 6 1 1 4 2 2 5 3 2 1 3 3 0 1 3 0 1 2 3 2 1 2 2 1 2 5 3 4 1 0 2 3 5 2 2 5 1 3 3 4 5 4 3 4 2 3 3 1 5 5 2
19 19 20 21 21 21 23 23 25 27 17 1 1 1 1 1 1 1 1 4 4 2 3 4 1 0 2 1 4 2 2 4 2 4 3 5 3 0 4 3 3 1 4 4 0 3 4 4 3 5 5 3 5 4 3 3 4 1 1 0 1 3 2 1 2 1 2 2 3 3 1 3 1 1 3 4 6 5 2 3 3 2 2 3 4 4 3
19 19 20 21 20 21 22 22 25 26 18 3 2 2 2 1 2 1 2 1 1 2 3 3 2 1 1 1 1 0 7 9 6 4 5 1 5 5 6 3 7 2 4 3 1 1 3 4 6 8 7 3 1 2 4 7 7 3 3 0 3 2 3 1 1 1 4 6 3 4 2 3 4 3 7 10 5 2 1 1 1 2 9 7 6 8 6
19 19 20 20 20 21 21 21 22 24 13 6 4 2 3 5 3 4 3 0 4 3 2 4 4 1 1 4 1 3 5 4 3 3 4 3 6 4 2 5 6 2 1 2 4 3 2 2 4 0 1 2 1 1 6 6 5 7 6 2 0 2 4 1 1 0 3 3 1 2 2 1 2 3 6 8 6 6 5 3 5 4 6 6 8 8 4
19 19 20 20 20 20 21 20 20 20 14 4 1 2 4 2 1 2 1 1 3 3 3 1 1 3 4 5 1 1 4 4 3 0 2 5 9 4 6 5 6 2 3 2 2 4 5 2 3 1 1 4 2 4 7 8 4 2 6 6 3 3 1 1 2 1 1 2 3 2 0 5 4 6 2 5 6 7 8 5 5 5 1 5 5 5 5
19 19 19 20 20 20 20 20 20 19 18 6 1 2 3 1 1 0 1 2 1 1 4 4 2 2 2 4 5 3 5 5 3 4 2 2 6 8 1 3 2 2 1 3 5 4 2 2 3 0 4 3 4 6 6 8 4 1 1 4 7 2 1 1 1 2 2 2 2 1 3 4 5 4 2 1 6 2 6 1 2 4 7 10 10 8 9
19 19 19 19 20 20 20 20 20 19 20 12 2 4 3 2 3 2 1 2 2 2 1 3 5 8 8 7 2 3 2 5 5 2 4 2 5 9 4 0 1 2 4 4 4 3 2 6 2 3 5 7 3 3 3 2 6 7 4 2 5 8 4 2 0 0 1 2 1 4 4 4 2 2 1 4 3 2 3 3 7 6 5 10 11 10 6
19 20 19 20 20 20 20 20 20 20 20 18 3 4 4 4 2 0 1 2 1 4 0 1 3 5 5 4 1 5 4 4 7 5 3 2 2 4 4 5 2 4 4 3 2 6 2 2 1 1 4 3 1 1 1 0 3 2 3 5 5 6 4 2 4 2 3 1 2 1 1 1 6 9 6 3 2 3 4 3 3 2 5 5 11 10 7
20 20 20 20 20 20 20 20 20 21 21 20 4 4 5 3 3 0 1 2 4 1 3 4 2 2 3 3 1 1 2 2 2 2 5 4 3 10 5 7 6 2 4 3 2 3 1 0 1 2 1 1 3 2 2 1 1 1 2 4 8 8 7 7 4 1 1 2 1 2 1 5 6 5 5 2 2 9 3 4 3 4 7 7 9 8 8
20 20 20 20 20 20 20 20 20 21 19 20 7 5 4 4 5 3 1 1 2 4 4 3 3 0 1 5 6 4 1 1 1 1 2 4 3 4 7 6 6 3 2 3 3 1 1 1 3 1 3 2 0 2 2 1 3 1 2 4 6 4 2 2 3 0 0 3 1 2 4 1 1 5 3 2 4 5 5 1 4 4 4 7 7 11 11
20 20 20 20 20 20 20 20 20 20 21 21 8 2 4 4 6 4 1 1 1 3 3 3 4 3 2 1 2 4 0 2 3 1 1 2 2 3 4 4 4 5 3 2 1 3 1 1 1 2 2 4 1 1 2 4 4 4 2 3 2 0 1 2 6 4 2 4 2 2 4 5 5 4 4 3 2 6 3 4 4 2 4 6 8 11 11
20 20 20 20 20 20 20 19 20 20 20 22 12 1 3 3 8 6 1 2 2 2 6 4 2 0 1 1 1 1 0 1 0 1 3 5 1 3 5 4 1 2 6 2 3 2 2 2 0 2 1 3 2 2 1 1 4 0 3 2 0 0 1 1 3 1 4 5 2 5 4 8 5 1 4 1 3 1 2 6 4 5 5 5 8 10 9
20 20 20 20 20 19 20 19 19 19 19 19 10 1 8 7 4 5 4 1 0 2 6 3 1 2 2 1 3 3 7 5 1 3 1 0 6 6 7 1 4 2 4 3 1 1 1 2 3 0 1 2 3 1 0 3 2 4 2 3 5 7 4 4 3 2 2 1 1 1 1 2 4 5 1 2 3 6 6 3 2 4 6 6 3 7 7
20 20 20 20 19 19 19 19 19 18 18 19 12 4 6 2 5 5 4 1 1 2 6 3 1 2 1 3 4 3 1 5 5 2 4 3 3 3 2 0 3 1 2 1 3 3 3 1 3 1 4 3 4 1 2 1 4 4 4 5 3 3 3 1 4 6 2 2 2 3 7 5 6 7 5 4 8 3 5 5 5 4 3 5 4 2 6
20 20 20 20 20 19 19 19 18 17 17 17 13 1 1 5 5 3 5 1 2 5 5 6 3 6 9 8 9 8 10 10 11 5 2 3 3 0 4 2 3 1 2 2 3 2 2 1 1 0 2 3 2 1 2 2 3 4 1 4 1 5 5 8 4 4 4 4 6 8 5 6 7 7 5 6 6 4 7 5 5 4 3 1 7 5 5
20 20 20 20 20 19 19 18 17 17 16 16 9 2 3 6 8 7 5 0 2 3 3 4 4 4 5 8 9 10 11 11 9 4 3 2 4 2 4 3 4 3 1 2 1 3 4 1 4 3 0 2 3 2 1 3 2 1 1 2 3 1 2 0 3 2 1 2 4 1 0 1 3 4 3 6 5 3 5 6 4 4 4 5 7 7 8
19 20 20 20 20 19 19 18 17 16 16 14 7 3 4 4 6 7 4 1 2 4 5 2 2 2 1 6 10 8 4 1 2 4 2 4 4 5 3 3 3 1 1 2 2 1 3 1 2 1 1 4 2 1 1 2 2 1 0 2 3 1 2 1 0 1 4 2 2 1 5 2 4 5 2 1 1 5 6 6 5 4 4 3 5 11 10
19 19 20 20 21 20 19 18 17 16 14 15 10 4 5 4 2 3 2 2 5 3 1 6 3 8 3 5 6 5 2 4 7 5 5 4 10 9 8 7 4 3 6 4 2 4 3 1 3 1 0 4 2 4 3 1 6 1 2 4 1 2 0 1 0 1 2 3 7 7 4 4 6 6 6 5 4 5 5 6 6 5 6 7 9 10 10
19 19 19 20 21 20 19 19 18 16 15 15 10 4 2 4 5 2 3 1 1 1 1 3 7 6 5 9 5 4 10 10 7 8 6 5 9 13 10 0 3 1 1 0 1 1 1 0 1 1 2 5 1 1 1 3 3 1 1 2 4 3 1 2 3 2 5 3 2 2 3 3 5 5 5 4 6 7 4 4 5 5 7 4 5 10 13
20 20 20 20 20 20 20 19 18 17 16 15 8 3 3 5 4 5 2 1 1 2 2 3 6 7 7 11 10 5 5 7 7 5 8 9 6 3 2 3 4 3 1 2 3 2 2 1 2 3 3 4 0 1 2 3 0 1 3 4 1 1 3 1 1 0 1 4 3 5 3 3 8 7 8 7 6 6 6 3 5 6 6 8 9 5 7
21 21 21 20 20 20 19 19 17 17 16 16 7 5 4 2 3 4 3 3 2 2 2 4 5 9 8 7 5 5 11 7 4 6 5 7 5 4 4 5 4 2 0 1 4 1 1 1 6 3 0 1 1 5 1 0 2 1 1 4 2 2 5 3 2 4 4 8 9 7 6 5 8 11 8 7 5 5 7 7 8 7 8 10 11 9 4
22 21 21 21 20 19 19 18 18 15 15 12 7 3 1 4 0 5 6 5 1 1 1 4 4 3 1 7 8 8 5 4 6 5 5 6 4 4 3 4 6 4 2 3 3 2 2 4 2 2 2 4 2 3 2 3 2 4 5 4 3 5 7 6 8 5 4 5 5 8 4 3 3 6 7 8 7 7 9 8 8 10 10 9 10 13 13
23 22 21 21 20 19 18 18 16 13 11 6 3 1 2 1 0 4 5 4 3 0 2 2 3 4 4 4 5 5 6 7 7 6 6 6 5 5 3 2 4 3 3 3 4 3 4 2 2 2 2 2 2 1 1 2 2 5 4 4 6 4 3 4 3 5 4 4 7 8 5 5 5 3 5 7 9 10 9 9 8 7 7 8 10 8 9
24 24 23 21 21 19 18 17 16 10 6 2 1 1 1 0 1 0 6 3 3 1 1 1 5 5 6 4 2 5 8 10 6 6 6 4 4 4 4 2 1 3 1 0 0 5 3 1 1 3 1 2 4 3 4 3 3 2 4 4 4 4 4 5 4 6 5 4 3 2 2 1 1 1 1 3 6 6 6 5 6 9 10 7 9 10 8
24 24 23 22 21 19 18 16 14 9 1 1 1 1 1 1 1 5 6 4 1 2 1 2 4 4 2 4 3 2 5 7 3 2 3 2 2 1 3 1 4 2 4 3 2 1 2 3 3 3 2 4 3 1 2 3 4 5 2 4 5 5 4 4 3 3 2 4 2 1 0 1 2 7 4 5 7 8 9 10 9 8 9 10 8 9 11
25 25 24 22 21 19 17 14 12 4 5 5 7 8 10 12 12 8 3 2 2 0 1 1 1 2 1 5 6 6 1 4 3 5 4 2 1 1 4 3 3 2 3 2 1 3 4 4 2 3 6 1 2 1 3 6 6 6 6 6 6 6 7 4 3 4 5 2 5 5 5 4 4 7 7 6 7 9 8 7 7 5 4 4 4 4 3
25 24 23 23 21 17 17 13 4 5 3 1 2 0 1 0 2 1 1 1 1 0 1 1 1 1 4 5 4 8 3 3 4 3 3 4 1 0 3 2 4 1 3 2 4 0 4 1 3 4 1 2 1 1 4 5 3 5 5 6 6 6 5 4 2 4 5 6 5 7 7 8 4 2 0 3 6 6 6 7 6 6 6 7 8 8 8
25 24 22 21 19 18 13 3 3 0 0 0 0 2 1 1 2 2 2 1 1 2 2 1 1 1 4 5 2 6 2 3 4 3 1 6 1 1 1 0 4 1 6 1 1 1 1 3 3 1 7 2 1 4 3 3 5 5 4 5 5 4 1 3 6 5 5 4 4 5 7 3 1 3 7 6 7 7 6 6 8 10 8 8 8 8 6
25 23 21 19 18 8 1 2 3 4 4 1 4 7 14 12 6 3 2 1 1 2 1 1 1 1 1 2 3 4 4 4 2 2 2 1 5 3 3 2 0 5 0 0 4 1 2 3 1 5 1 0 5 3 5 5 5 6 6 8 7 6 7 7 6 6 6 4 3 2 4 2 5 8 8 8 8 6 8 8 6 6 10 9 9 7 6
24 22 21 16 4 3 3 0 0 3 1 6 11 16 17 4 1 2 1 1 1 0 1 0 1 3 1 3 1 4 5 6 4 4 5 3 2 2 3 1 2 3 2 1 1 1 6 0 1 1 1 3 3 6 6 5 5 5 5 7 7 5 5 5 5 5 5 9 11 9 5 5 6 6 5 6 8 7 6 8 10 9 9 10 8 7 8
23 19 5 3 4 2 1 1 0 5 10 13 9 3 2 2 0 1 2 1 1 1 1 1 1 3 3 2 4 4 5 5 2 3 4 1 2 3 0 0 1 0 2 1 4 4 1 0 3 3 4 5 4 4 5 4 6 5 5 5 6 6 5 6 5 4 5 7 8 11 7 2 4 5 6 8 7 8 11 12 11 11 11 11 11 10 7
12 4 5 3 3 0 1 3 6 17 11 4 1 1 0 0 1 0 1 1 1 1 1 3 1 2 4 2 5 5 1 4 4 2 1 4 1 5 2 1 3 2 1 2 6 2 2 3 2 1 4 3 3 4 3 5 4 4 5 7 6 6 6 7 6 8 9 9 10 10 10 10 8 9 8 9 8 8 10 10 9 10 11 11 10 8 8
6 8 4 3 1 2 5 5 11 7 1 1 0 2 0 0 2 1 0 1 1 2 2 2 2 2 3 2 2 6 4 5 3 4 2 7 1 1 2 1 1 1 1 1 6 2 1 1 1 2 4 4 3 4 6 8 8 10 9 9 8 8 8 9 10 9 9 11 10 11 9 8 8 8 8 9 10 10 9 8 9 10 10 11 11 10 10
4 3 3 1 4 4 6 8 6 0 1 1 1 1 1 0 1 1 1 2 2 0 0 1 1 3 2 1 0 3 5 1 3 2 2 3 4 2 1 2 2 0 2 1 4 1 1 0 0 1 4 4 11 15 17 18 19 19 19 20 19 17 15 12 11 10 9 10 10 10 10 9 9 10 10 10 10 11 12 12 12 12 11 9 10 11 10
4 4 5 5 6 6 6 2 0 1 1 0 2 0 1 1 1 3 1 2 0 1 4 2 3 3 3 3 4 2 5 1 2 1 1 2 3 1 3 0 0 1 2 6 2 1 1 1 1 2 8 11 11 13 15 16 16 18 20 20 18 21 23 22 22 20 16 13 11 9 8 8 9 10 10 10 10 11 11 11 11 11 13 13 12 10 8
16 12 5 3 2 2 1 1 1 1 1 1 2 1 1 2 1 1 0 1 1 1 2 1 1 2 3 2 4 1 2 2 2 3 2 2 3 1 1 1 0 1 4 2 0 1 1 2 1 1 4 8 10 13 13 12 12 13 15 16 17 18 19 19 18 18 19 21 21 18 15 12 11 11 11 10 10 9 10 10 13 13 12 12 11 10 10
2 2 1 0 0 2 1 0 1 2 2 1 2 1 0 2 3 3 2 1 0 1 0 3 3 5 3 2 1 4 5 4 2 1 1 1 1 2 1 2 1 4 3 2 1 2 3 3 1 3 6 3 6 11 13 14 15 15 17 19 18 17 19 20 20 21 22 20 19 19 20 18 16 14 11 8 10 13 13 12 11 12 12 12 11 11 10
2 2 1 1 1 2 1 1 1 2 1 0 1 1 1 3 1 2 2 2 2 1 0 1 2 2 1 4 1 1 1 2 2 1 1 1 2 1 0 3 2 1 1 2 2 3 2 1 1 5 10 13 12 13 12 11 12 14 15 17 19 20 20 22 21 19 18 18 18 18 17 18 18 16 14 13 11 12 13 13 11 10 10 11 12 11 9
2 0 1 2 2 2 1 0 0 1 1 1 1 4 4 3 4 3 2 2 2 1 3 1 1 1 2 2 1 1 1 1 3 1 0 1 1 2 2 0 1 1 1 1 3 3 1 2 7 8 11 12 12 12 11 10 10 13 16 18 18 19 18 20 19 19 18 20 21 19 19 18 19 20 18 16 14 13 12 12 10 12 12 12 12 13 10
1 1 0 0 1 2 0 2 1 0 1 2 2 5 6 7 4 3 3 3 5 5 3 2 0 1 0 3 1 3 1 0 0 3 1 0 2 3 1 1 2 1 1 1 3 1 2 4 6 8 10 11 13 13 13 13 13 13 14 13 15 18 18 20 20 20 20 22 22 22 21 21 22 22 21 18 15 14 13 12 12 11 13 14 14 13 11
1 1 1 1 1 0 2 0 0 2 2 1 2 5 5 2 5 3 1 2 5 4 3 1 2 4 4 3 2 1 1 0 1 4 1 2 1 1 1 0 1 1 0 0 1 3 3 5 7 8 9 8 10 13 14 15 16 16 15 15 16 16 18 19 19 19 20 21 21 20 20 22 22 22 22 22 19 16 14 13 12 12 12 12 12 12 12
1 0 0 0 0 0 1 4 3 3 5 7 6 5 5 7 3 2 3 1 5 4 4 3 2 2 1 1 0 1 1 1 1 3 1 1 1 2 1 2 1 1 1 2 1 3 6 7 7 9 9 10 9 10 11 11 12 14 14 14 13 13 14 16 15 16 17 16 17 18 20 21 20 20 23 24 22 17 14 13 12 11 11 12 13 13 13
1 2 1 1 2 1 4 2 6 5 6 5 4 4 2 5 5 5 3 4 2 3 2 3 2 3 1 1 1 0 1 1 1 1 2 1 2 1 1 3 2 1 1 3 4 5 5 5 6 8 10 11 12 10 10 14 14 14 14 14 12 13 13 14 15 16 16 16 17 19 19 18 19 20 22 23 22 21 16 12 10 11 11 12 13 14 14
1 1 2 1 1 1 3 2 2 3 6 5 4 3 1 1 2 4 1 2 2 2 1 1 1 1 0 1 0 0 2 0 2 1 3 2 1 0 2 4 1 1 3 4 5 6 6 5 5 7 9 11 12 12 12 11 13 14 14 15 16 14 14 14 14 15 17 17 17 17 19 19 18 20 21 21 21 20 16 14 10 9 11 12 13 14 14
1 1 1 3 2 1 0 2 2 4 3 2 2 3 2 4 3 1 1 4 2 1 2 1 1 1 2 1 3 1 1 2 1 0 1 3 1 2 3 2 3 3 5 6 7 7 6 6 4 5 7 9 11 12 13 13 11 11 13 14 16 16 16 14 15 15 15 16 17 17 17 18 20 20 21 22 22 21 19 15 12 10 10 11 12 14 15
Wind_Direction
356 353 350 351 350 350 349 349 349 353 346 20 4 341 37 77 211 254 286 304 88 65 22 298 13 225 236 217 304 231 239 236 247 293 245 229 209 195 191 225 223 238 223 224 289 144 47 10 126 241 89 75 95 230 109 112 50 78 345 29 296 73 66 41 306 319 308 322 283 345 63 92 44 7 77 90 165 178 164 173 191 126 2 43 4 184 251
351 349 348 348 350 350 348 346 349 350 10 0 307 71 135 189 244 313 298 75 86 96 212 262 284 268 299 196 238 243 235 244 285 247 278 274 305 221 216 217 189 203 191 98 308 112 72 267 122 28 94 59 296 74 56 80 68 99 219 130 253 69 302 118 33 2 337 342 349 2 335 49 96 146 313 165 117 83 122 104 55 78 262 172 120 217 289
352 350 348 348 351 350 350 349 346 348 350 6 293 126 197 320 307 267 296 352 94 220 192 157 194 247 258 42 305 296 284 224 223 228 274 263 250 220 275 165 290 29 329 292 32 118 154 242 305 135 79 159 46 71 95 92 99 85 185 150 122 94 196 96 123 129 140 174 299 282 331 259 283 44 357 307 86 62 41 331 8 97 283 95 130 237 253
355 352 348 350 351 351 351 349 347 344 346 326 159 151 58 65 194 298 333 355 32 34 138 133 151 223 204 1 262 267 291 313 259 243 274 233 228 203 225 336 93 87 39 26 12 331 358 115 218 69 93 297 8 180 97 92 118 183 98 103 74 136 111 104 154 148 183 208 213 257 125 25 60 309 90 70 82 74 93 105 84 106 207 99 221 176 185
356 353 349 352 352 352 352 351 348 346 342 259 187 30 112 163 114 254 344 334 26 249 340 320 65 231 174 213 240 290 245 268 312 295 307 293 170 25 69 353 33 309 32 346 17 335 358 355 65 101 129 251 150 121 126 99 147 119 84 110 78 69 52 296 137 174 192 184 190 214 180 158 208 139 230 244 84 101 91 113 187 160 87 304 269 193 146
357 354 351 352 353 353 352 352 351 350 349 156 201 96 48 69 261 47 204 131 254 3 309 213 226 266 149 234 207 233 301 6 306 313 225 292 337 109 333 44 73 198 183 118 80 321 31 11 84 35 12 53 81 56 346 69 352 78 18 35 113 130 127 255 103 276 254 205 216 205 165 184 183 177 185 158 141 101 110 212 189 124 141 197 241 174 178
358 356 353 351 352 353 353 353 353 354 349 128 90 103 272 142 246 259 310 5 250 208 244 236 182 235 189 270 218 275 355 282 225 199 318 355 309 89 200 267 246 26 84 103 154 12 68 328 303 152 171 184 110 39 7 355 18 73 35 19 108 86 90 201 173 43 302 268 256 206 145 341 349 181 209 183 130 168 152 167 177 141 183 211 175 170 211
358 356 354 354 351 350 351 353 355 355 349 327 34 98 117 275 82 301 352 40 288 275 314 259 64 2 248 159 265 188 222 276 311 268 110 320 297 50 118 247 355 116 83 109 90 207 165 166 231 255 109 344 106 198 188 180 329 71 143 139 344 103 267 158 127 78 302 277 257 261 126 123 292 314 193 175 136 149 183 150 169 91 56 52 125 123 167
359 356 355 355 352 352 353 356 359 355 352 95 101 71 96 260 175 160 24 341 277 319 356 352 30 66 337 58 282 348 285 290 272 284 271 237 295 38 221 174 115 172 78 53 97 223 177 172 190 190 142 165 215 133 277 145 146 93 115 41 322 76 245 18 54 66 305 290 192 230 34 71 84 336 135 160 134 138 209 138 207 120 153 135 102 113 208
358 357 356 356 355 355 355 0 2 1 347 96 22 74 314 8 309 39 139 234 295 6 309 318 54 7 236 179 262 331 313 300 354 347 298 242 307 242 164 179 106 21 81 95 51 322 216 221 209 181 208 158 172 186 160 158 155 162 153 270 130 159 112 90 72 105 259 261 216 160 44 34 3 314 190 189 207 192 119 320 167 180 145 128 148 210 217
359 359 357 356 356 355 356 1 6 9 13 48 29 16 332 34 342 350 46 66 315 24 28 347 78 226 226 290 349 358 338 347 55 65 281 336 317 349 123 108 103 136 144 220 217 189 166 208 234 194 152 261 338 279 144 169 135 156 152 126 66 81 103 156 160 90 250 298 329 42 51 44 244 228 185 162 175 180 148 186 195 204 141 195 183 190 196
358 358 357 356 356 356 357 360 5 12 17 349 299 276 237 284 299 126 83 100 257 317 71 243 274 305 352 303 239 62 320 329 3 84 280 297 305 333 82 55 87 60 254 231 9 18 8 11 20 20 20 326 276 300 102 150 214 173 138 133 165 140 115 145 170 99 287 35 40 45 257 230 246 293 273 210 158 152 173 212 210 192 113 90 100 147 163
357 357 357 357 356 357 356 357 360 4 10 357 280 251 287 263 189 129 137 120 232 336 23 303 318 284 297 346 6 356 292 276 296 347 321 298 322 331 316 135 140 215 223 77 41 50 62 303 323 185 287 324 341 42 104 117 160 71 53 127 119 165 138 187 27 121 54 55 53 114 242 240 281 296 298 347 93 113 87 53 291 247 169 150 156 187 194
356 356 357 357 357 356 356 356 355 357 3 3 281 252 286 331 39 25 81 97 300 233 228 311 347 353 354 341 337 304 305 343 329 52 15 314 317 319 295 286 190 173 139 97 65 72 8 34 19 9 316 4 0 20 281 210 167 137 133 169 110 135 114 99 328 41 188 200 163 219 287 325 332 357 239 189 204 178 158 201 259 228 201 158 170 187 200
355 355 355 356 357 357 357 356 355 355 358 360 289 277 283 305 358 140 276 99 206 290 74 145 282 302 318 304 2 4 4 319 13 329 299 335 10 319 300 336 315 130 83 76 10 45 129 108 30 31 332 38 131 248 321 3 342 23 137 143 119 141 113 222 105 283 116 149 324 344 26 226 274 241 270 301 213 132 156 104 290 289 240 205 160 176 183
354 354 354 355 356 357 357 356 356 356 358 357 10 336 279 269 305 166 137 146 114 7 284 218 270 269 296 280 325 4 333 357 306 314 354 352 317 323 337 353 311 16 63 76 94 94 81 157 235 98 221 216 234 81 272 116 39 334 37 97 74 39 83 126 117 162 36 48 125 217 164 244 214 243 242 277 161 118 113 65 303 266 198 207 171 162 167
353 353 353 354 355 356 355 356 355 356 357 3 340 330 289 2 21 332 35 36 96 205 240 285 329 62 36 342 5 9 349 84 304 60 336 327 305 295 304 339 330 43 88 76 12 64 1 48 124 155 281 218 21 213 254 80 134 223 323 19 55 58 353 47 41 53 189 134 115 257 203 237 293 235 258 224 133 80 61 20 280 252 226 189 175 157 171
351 351 351 352 353 354 355 355 356 355 356 354 351 269 284 315 353 339 80 116 113 294 246 43 41 31 30 300 246 261 34 8 17 20 119 262 330 356 314 337 342 321 90 83 74 72 69 118 175 195 238 258 214 140 255 179 171 194 202 173 159 177 312 60 187 180 176 138 251 322 304 276 252 239 235 194 171 73 84 194 238 249 183 180 182 165 173
349 349 349 350 351 353 354 354 356 356 356 358 347 318 259 326 344 1 103 38 85 219 272 337 269 233 268 312 232 278 4 285 213 74 314 9 354 269 266 255 112 302 357 143 74 120 129 272 51 127 144 300 25 223 217 70 221 282 107 88 72 307 120 324 83 120 189 196 169 228 236 238 197 254 174 195 63 267 208 235 198 144 152 191 187 167 177
346 346 347 348 350 351 351 353 354 355 357 358 6 240 271 299 338 15 37 129 60 247 289 277 21 290 0 35 342 3 335 10 98 116 129 24 279 341 19 28 329 67 341 61 50 219 112 232 226 356 281 211 256 183 70 269 183 159 190 190 137 198 140 212 190 219 69 69 69 359 308 281 150 141 43 38 115 231 210 169 219 185 155 137 172 157 181
344 344 345 345 347 348 348 351 350 352 353 356 359 351 333 303 17 359 30 17 117 12 307 278 276 263 256 251 218 230 202 233 257 311 236 187 241 77 48 204 256 13 248 165 177 241 167 246 261 195 205 152 264 44 204 327 325 284 151 180 188 203 117 240 256 178 157 137 163 191 211 209 203 137 179 224 201 187 174 145 183 242 161 134 116 172 165
341 341 341 343 344 345 345 346 347 347 349 352 351 333 299 291 338 322 330 230 139 181 212 251 223 261 260 248 245 225 225 240 244 203 216 318 330 161 217 202 247 183 232 127 16 350 339 213 47 33 271 291 5 218 186 348 300 272 332 95 321 220 178 176 171 228 136 198 211 240 226 186 191 167 193 208 225 167 163 153 169 165 244 176 125 173 170
340 339 339 339 340 339 341 341 342 342 344 349 1 53 281 308 320 327 323 34 293 303 297 311 316 283 269 252 236 233 241 236 254 254 191 149 305 272 181 198 283 230 277 104 161 175 210 142 239 170 26 192 201 275 351 145 223 318 339 239 190 276 177 237 86 222 287 257 195 237 16 188 209 246 194 181 208 202 147 154 166 244 205 172 154 169 159
339 337 336 336 335 335 336 336 336 336 336 340 352 322 302 278 278 339 340 54 97 329 323 337 44 296 336 343 325 316 289 263 190 250 214 169 229 292 320 251 227 41 330 282 171 204 245 149 238 136 213 244 88 67 179 311 240 221 90 336 329 301 138 63 81 267 80 232 309 212 202 213 216 212 251 260 188 169 177 163 175 204 175 166 157 154 162
337 336 333 332 331 331 331 331 332 330 330 332 335 260 250 306 254 36 41 52 331 75 248 307 282 233 313 309 263 268 261 332 300 279 279 217 201 213 232 224 184 218 263 263 71 44 42 332 317 25 266 267 128 278 230 94 310 132 25 274 22 318 136 81 232 130 140 227 224 226 230 219 209 196 177 199 223 208 198 178 189 176 169 165 170 152 153
334 333 332 330 328 326 325 325 326 326 327 326 332 317 340 277 300 292 184 284 202 119 103 291 277 312 344 356 327 300 302 301 310 319 315 284 215 210 221 323 318 29 133 110 108 275 171 90 154 142 146 289 134 142 221 199 204 212 108 240 194 215 84 232 176 187 278 294 309 16 27 340 293 293 296 267 195 188 209 163 157 141 135 135 161 169 162
330 331 329 328 323 323 322 321 321 322 325 323 324 273 237 276 273 350 27 259 56 349 31 265 278 302 359 318 288 308 295 312 313 319 319 330 324 276 158 165 214 292 239 296 21 131 79 93 121 247 172 228 235 225 186 313 161 321 301 276 267 92 258 269 64 6 316 210 223 135 127 263 270 253 232 233 236 189 170 159 146 161 150 151 160 204 183
328 327 325 325 323 320 317 316 316 319 324 320 304 267 214 222 347 20 17 43 99 184 205 266 308 294 306 270 269 294 301 300 308 308 309 309 318 306 235 234 200 168 235 179 301 303 162 184 253 235 211 290 48 294 328 213 59 35 324 255 183 150 219 144 150 160 257 260 240 197 169 203 223 220 215 205 208 187 161 181 177 189 178 165 156 161 184
325 324 322 321 319 317 314 312 312 318 325 325 316 313 152 230 79 35 35 358 25 122 158 255 301 340 311 289 306 309 304 323 316 312 299 301 308 311 289 215 185 180 110 83 114 120 147 225 184 160 204 213 121 263 15 275 242 229 236 231 203 226 165 168 192 176 241 224 205 179 154 186 238 237 208 199 189 189 192 193 182 180 181 180 165 163 169
323 322 321 317 315 312 308 306 307 315 325 328 337 50 44 308 7 40 18 26 10 105 64 18 356 260 305 314 298 300 309 321 323 321 319 314 313 302 259 209 241 187 150 165 163 240 225 192 270 276 271 144 185 208 222 194 173 245 261 264 245 293 298 277 169 173 225 214 184 197 205 213 229 207 213 198 183 187 192 196 191 189 196 179 174 180 168
322 320 318 316 312 308 305 302 299 306 329 11 28 67 85 145 281 109 13 357 351 114 141 120 232 287 327 260 254 294 306 312 312 309 298 270 246 244 281 318 301 145 127 6 216 235 137 261 156 283 272 184 128 142 189 165 241 303 264 243 251 274 277 274 215 216 233 251 225 190 166 197 216 97 109 178 199 202 211 212 207 186 182 184 186 181 180
320 318 316 312 306 302 299 293 291 291 172 157 217 189 172 226 259 307 338 316 332 71 70 5 334 352 277 309 289 273 285 282 287 317 309 352 329 301 315 206 244 181 148 173 204 90 225 218 158 232 212 239 122 187 139 166 211 235 261 269 261 247 246 256 319 323 214 207 125 72 335 283 231 160 221 224 204 201 199 207 200 201 184 184 194 192 185
319 317 313 309 305 299 295 285 282 253 177 238 248 278 265 258 261 273 283 323 53 66 142 87 201 255 314 267 314 303 296 357 354 16 325 310 259 323 319 360 11 12 320 94 311 219 219 164 159 213 247 128 164 202 198 224 219 227 218 224 246 246 239 257 315 311 300 225 193 215 230 215 235 233 211 185 175 191 204 210 215 192 173 181 193 215 236
319 315 311 307 301 299 303 299 309 139 115 63 59 263 294 357 46 243 289 64 128 263 67 108 336 343 270 316 23 287 11 7 286 5 333 293 240 331 240 13 3 16 305 189 253 40 326 72 205 232 1 259 128 147 254 253 240 234 244 244 249 265 284 293 270 274 264 252 225 224 230 231 233 206 147 167 188 208 194 184 154 166 196 193 204 204 201
317 313 307 302 297 310 306 294 111 72 85 168 303 239 131 150 218 160 86 15 62 346 19 328 110 15 341 349 20 280 305 2 337 306 221 273 13 201 249 131 329 152 273 77 31 171 218 252 165 103 242 313 137 220 248 247 259 246 254 255 261 251 308 314 293 270 257 257 265 262 260 269 181 186 203 211 206 193 180 195 182 170 180 202 201 207 193
317 310 306 298 303 308 316 360 48 45 23 347 252 287 302 311 287 249 191 229 136 141 105 252 70 208 189 299 305 279 335 336 279 324 284 294 343 15 87 113 345 248 209 101 212 330 223 245 93 266 294 211 227 192 231 210 218 228 214 217 228 202 214 219 234 271 286 293 260 257 277 245 216 220 213 213 208 202 192 190 210 196 189 196 208 202 185
317 311 306 304 309 54 22 177 335 101 233 249 275 286 291 316 5 70 41 39 334 59 141 126 51 264 185 248 286 275 10 329 328 357 330 7 266 291 38 41 222 277 28 2 354 181 254 62 123 235 276 206 252 232 234 218 206 216 236 234 242 242 257 263 236 229 288 300 305 313 295 254 242 239 230 221 217 205 190 199 197 190 202 208 210 208 207
313 314 338 18 35 42 355 319 299 301 324 306 316 333 13 72 62 336 8 30 272 69 344 68 185 272 337 23 271 272 357 278 25 349 304 252 18 311 29 124 234 38 298 253 255 202 14 350 215 204 261 252 246 268 264 250 245 248 260 265 258 254 246 252 255 253 262 281 291 287 293 262 262 260 229 231 218 204 206 207 203 202 200 200 200 200 205
324 344 22 10 89 129 196 246 324 336 319 268 98 68 321 30 70 10 251 231 31 16 285 102 272 333 13 340 296 293 221 282 324 4 291 282 52 300 2 24 298 59 323 20 295 37 292 324 334 9 284 309 326 284 272 272 276 261 243 247 251 255 247 251 239 228 230 227 234 236 234 238 234 240 225 233 237 226 217 209 208 207 204 202 203 201 202
17 16 359 350 36 253 274 306 345 326 325 48 317 101 115 313 101 273 260 73 13 331 0 28 2 21 44 26 303 306 328 18 10 316 271 303 236 219 262 107 262 87 257 140 250 22 145 269 281 44 299 306 285 276 302 307 314 310 310 297 283 267 257 253 259 248 239 245 243 246 245 240 231 227 224 221 222 226 235 233 223 213 203 205 200 193 202
16 347 344 329 279 315 309 316 320 333 55 42 15 354 60 337 288 191 73 58 61 270 74 254 356 7 311 302 327 300 296 338 253 258 236 241 256 86 27 256 239 52 249 230 275 81 92 96 21 201 239 327 356 3 8 13 7 359 356 354 347 326 305 292 276 265 257 251 248 248 246 239 236 235 233 227 220 220 219 214 213 213 210 205 201 206 209
272 251 255 291 297 286 306 323 139 29 354 167 114 250 216 211 293 33 41 95 60 321 327 21 16 352 305 309 289 276 293 283 311 335 36 306 306 270 228 249 40 122 251 234 176 64 95 184 202 38 344 357 1 6 12 8 4 359 354 349 358 9 6 1 354 342 325 296 280 271 264 247 244 245 239 233 226 222 221 218 218 213 208 210 205 202 196
286 264 215 264 304 279 201 11 294 107 112 2 44 26 340 69 359 98 337 316 318 85 284 8 287 282 285 352 324 274 230 307 7 327 28 321 300 312 298 305 90 254 245 313 113 149 203 210 92 255 334 356 355 0 3 2 356 359 354 352 360 4 0 356 351 346 350 353 342 328 305 281 261 251 246 239 232 233 227 217 208 207 208 206 203 201 194
271 132 83 212 320 287 84 322 278 44 358 55 91 119 353 30 326 8 41 297 289 22 317 62 309 54 336 302 323 304 359 348 27 49 338 288 40 307 339 261 249 271 304 358 10 214 217 94 157 282 316 316 3 6 360 356 355 350 357 357 352 355 357 353 353 356 353 348 343 339 332 321 303 286 273 254 232 226 225 219 216 209 206 200 202 202 198
25 2 357 10 346 269 59 306 329 113 146 291 100 116 117 147 205 159 175 237 99 206 355 44 24 50 289 280 20 307 68 265 300 87 266 32 4 303 177 278 300 5 6 281 305 301 25 82 43 348 350 355 356 357 351 357 357 356 345 346 356 354 355 353 350 350 346 343 339 337 335 331 324 307 285 266 248 229 222 218 212 205 206 203 204 203 200
17 34 6 69 337 315 118 163 33 45 326 135 162 187 144 198 159 198 236 115 121 138 101 164 88 44 315 272 119 252 343 39 18 309 237 63 99 277 254 313 54 1 308 257 244 247 193 10 6 357 351 343 346 342 345 345 350 351 357 352 344 343 347 348 346 344 342 342 340 340 336 335 333 327 311 287 264 246 232 226 207 198 197 198 202 203 198
350 352 79 24 90 275 79 90 14 175 217 255 227 164 157 186 187 161 158 123 144 176 151 195 157 200 308 299 10 346 354 53 247 271 69 41 214 271 3 61 278 219 194 252 246 267 52 6 350 344 340 339 339 338 341 340 344 349 347 338 339 339 342 343 343 342 340 340 340 341 341 337 332 327 321 308 281 256 240 225 211 199 192 198 202 200 190
13 270 67 102 231 43 48 275 355 293 299 280 249 204 191 153 86 83 224 174 151 108 108 74 13 346 13 299 87 207 255 6 30 295 182 232 18 35 352 349 259 276 227 292 329 26 345 344 339 331 335 339 333 334 340 341 340 339 337 336 333 336 339 338 337 338 341 340 338 336 335 335 333 328 325 316 295 268 242 226 214 204 201 203 200 195 189
182 97 71 204 227 47 256 276 25 23 333 350 358 30 41 55 67 170 211 90 119 156 170 121 182 91 281 262 85 16 332 290 92 264 32 25 116 222 163 250 280 323 292 76 327 359 341 323 322 326 328 336 337 336 332 333 330 328 328 327 325 326 327 326 327 330 332 333 335 336 334 332 330 328 326 326 323 293 253 231 216 203 200 197 197 196 195
55 346 353 36 19 332 279 324 56 5 346 357 24 5 30 87 132 191 188 132 158 99 62 38 33 94 227 86 352 16 250 283 197 328 56 286 215 235 127 260 223 192 290 354 309 292 301 310 317 326 335 335 338 335 330 329 331 327 324 320 318 320 318 318 325 330 331 332 333 333 329 328 331 331 328 322 316 306 277 246 220 209 205 201 198 196 195
305 136 233 196 120 245 4 24 344 320 333 329 338 307 9 6 189 221 282 118 86 66 49 133 183 105 4 30 54 46 262 78 41 248 166 215 243 156 211 237 228 148 264 260 264 280 294 311 321 320 329 331 330 330 325 314 319 321 324 323 322 318 315 318 326 328 329 330 331 329 329 330 327 326 322 320 320 320 303 275 253 220 206 206 203 200 198
23 18 313 304 342 213 198 229 247 221 231 269 338 298 41 50 355 294 197 100 82 77 277 222 90 92 71 181 221 191 355 45 219 243 9 277 187 200 235 216 271 266 265 297 306 307 305 296 290 301 309 319 321 317 318 317 312 315 326 328 325 321 322 325 326 326 325 323 324 324 321 322 326 329 328 325 326 332 330 308 277 252 228 213 209 205 202